INTELSAT 12 (IS-12) (26590 NORAD) Tracking and Keplerian Element Data

This shows tracking and keplerian element data for the satellite.

Feedback or suggestion? Click here.




ElementValue
Catalog26590
NameINTELSAT 12 (IS-12)
Epoch Orbit3476
Epoch Day304.71963542
Epoch Year2021
RAAN81.774
Inclination4.1185
Eccentricity0.0010081
Argument of Perigee173.72
Mean Anonmoly54.9977
Mean Motion0.99030374
Decay Rate-1.03E-06
L11 26590U 00068A 21304.71963542 -.00000103 00000-0 00000-0 0 9998
L22 26590 4.1185 81.7740 0010081 173.7200 54.9977 0.99030374 34766



Live tracking and technical data element details for INTELSAT 12 (IS-12) (NORAD 26590). INTELSAT 12 (IS-12) can be tracked NOW for your location showing map with azimuth and elevation plus other details from your city location.







IsCatalogInMostPopularTable: catalog: 26590, numindb: 605
Update: records affected: 1



GetName: 26590 INTELSAT 12 (IS-12)

Hit Count: updated at: Fri, 14 Jun 2024 18:10:15 GMT